FW3598 Weather Reports


time (UTC)temp
C
wind
direction
speed
KPH
gust
KPH
rain 1hr
cm
rain 24hr
cm
rain mn
cm
humidity
%
barometer
mb
20260503200123 24 158 0.0 4.8 0.00 0.00 0.00 57 1012.8
20260503195123 24 202 0.0 3.2 0.00 0.00 0.00 57 1012.8
20260503194123 23 142 0.0 3.2 0.00 0.00 0.00 56 1013.0
20260503193124 23 184 0.0 4.8 0.00 0.00 0.00 57 1013.1
20260503192123 23 180 0.0 3.2 0.00 0.00 0.00 57 1013.2
20260503191123 23 169 0.0 3.2 0.00 0.00 0.00 57 1013.3
20260503190124 23 180 0.0 3.2 0.00 0.00 0.00 60 1013.6
20260503185124 22 180 0.0 4.8 0.00 0.00 0.00 62 1013.6
20260503184124 22 202 0.0 3.2 0.00 0.00 0.00 65 1013.6
20260503183123 22 293 0.0 0.0 0.00 0.00 0.00 65 1013.6
20260503182124 22 203 0.0 0.0 0.00 0.00 0.00 66 1013.7
20260503181145 22 270 0.0 0.0 0.00 0.00 0.00 67 1013.7
20260503180123 22 180 0.0 0.0 0.00 0.00 0.00 67 1013.6
20260503175124 22 203 0.0 0.0 0.00 0.00 0.00 66 1013.6
20260503174124 22 113 0.0 0.0 0.00 0.00 0.00 66 1013.7
20260503173123 22 203 0.0 0.0 0.00 0.00 0.00 66 1013.7
20260503172124 21 225 0.0 0.0 0.00 0.00 0.00 66 1013.8
20260503171123 21 68 0.0 0.0 0.00 0.00 0.00 66 1013.8
20260503170123 21 158 0.0 0.0 0.00 0.00 0.00 65 1014.0
20260503160123 17 158 0.0 0.0 0.00 0.00 0.00 85 1014.5
20260503150144 13 203 0.0 0.0 0.00 0.00 0.00 99 1014.3
20260503140124 11 23 0.0 0.0 0.00 0.00 0.00 99 1014.3
20260503131123 10 23 0.0 0.0 2.49 0.00 0.00 99 1014.2
20260503130123 10 23 0.0 0.0 2.49 0.00 0.00 99 1014.1